Skip Page Navigation
NASA JPL Caltech
NASA Logo - Jet Propulsion Laboratory + View the NASA Portal
+ Near-Earth Object (NEO) Program
Search JPL
JPL Home Earth Solar System Stars & Galaxies Technology
JPL Solar System Dynamics
BODIES ORBITS EPHEMERIDES TOOLS PHYSICAL DATA DISCOVERY FAQ SITE MAP
JPL Small-Body Database Browser
Search: [ help ]  
9527 (1981 EH23)
Classification: Main-belt Asteroid          SPK-ID: 2009527
Ephemeris | Orbit Diagram | Orbital Elements | Physical Parameters | Discovery Circumstances | Close-Approach Data ]

[ show orbit diagram ]
Orbital Elements at Epoch 2456800.5 (2014-May-23.0) TDB
Reference: JPL 10 (heliocentric ecliptic J2000)
 Element Value Uncertainty (1-sigma)   Units 
e .1186720087275301 4.9789e-08  
a 2.426377511372082 1.5183e-08 AU
q 2.138434418166252 1.2266e-07 AU
i 1.061486561719472 5.7886e-06 deg
node 273.81596953222 0.00031582 deg
peri 164.9728450165803 0.00031711 deg
M 4.572943610629295 2.9482e-05 deg
tp 2456782.964048714111
(2014-May-05.46404871)
0.00011302 JED
period 1380.498646046316
3.78
1.2957e-05
3.547e-08
d
yr
n .2607753372529726 2.4477e-09 deg/d
Q 2.714320604577912 1.6985e-08 AU
  Orbit Determination Parameters
   # obs. used (total)      818  
   data-arc span      13531 days (37.05 yr)  
   first obs. used      1977-02-13  
   last obs. used      2014-03-02  
   planetary ephem.      DE431  
   SB-pert. ephem.      SB431-BIG16  
   condition code      0  
   fit RMS      .58013  
   data source      ORB  
   producer      Otto Matic  
   solution date      2014-Jun-09 19:34:02  

Additional Information
 Earth MOID = 1.15317 AU 
 T_jup = 3.500 
[ show covariance matrix ]

Ephemeris | Orbit Diagram | Orbital Elements | Physical Parameters | Discovery Circumstances | Close-Approach Data ]

Physical Parameter Table
Parameter Symbol Value Units Sigma Reference Notes
absolute magnitude H 15.1 mag n/a PDS3 (MPC 32870)  
rotation period rot_per 9.05 h n/a Asteroid Lightcurve DataBase (Rev. 2013-Sep-12) Result based on fragmentary lightcurve(s), may be completely wrong.
Published Reference List:
[Binzel, R.P.; Xu, S.; Bus, S.J.; Bowell, E. (1992) Icarus 99, 225-237; Science 257, 779-782.]

9527 (1981 EH23)          Discovered 1981-Mar-03 by Bus, S. J. at Siding Spring (413)
Reference: 19981110/Numbers.arcLast Updated: 2004-04-19

[ show close-approach data ]
Ephemeris | Orbit Diagram | Orbital Elements | Physical Parameters | Discovery Circumstances | Close-Approach Data ]
ABOUT SSD CREDITS/AWARDS PRIVACY/COPYRIGHT GLOSSARY LINKS
FirstGov 2014-Jul-23 11:54 UT
(server date/time)  
NASA Home Page
Site Manager:   Donald K. Yeomans
Webmaster  Alan B. Chamberlin